EDT,Max TemperatureF,Mean TemperatureF,Min TemperatureF,Max Dew PointF,MeanDew PointF,Min DewpointF,Max Humidity, Mean Humidity, Min Humidity, Max Sea Level PressureIn, Mean Sea Level PressureIn, Min Sea Level PressureIn, Max VisibilityMiles, Mean VisibilityMiles, Min VisibilityMiles, Max Wind SpeedMPH, Mean Wind SpeedMPH, Max Gust SpeedMPH,PrecipitationIn, CloudCover, Events, WindDirDegrees
2013-5-1,75,68,60,61,58,56,90,72,53,30.19,30.14,30.08,10,10,9,18,10,24,T,6,,38
2013-5-2,75,70,65,63,60,54,87,74,60,30.18,30.15,30.12,10,10,7,22,13,32,0.01,7,Rain,59
2013-5-3,71,66,60,61,56,47,90,73,56,30.11,30.06,30.02,10,10,4,26,16,38,0.03,8,Rain,52
2013-5-4,70,63,56,61,56,50,93,81,68,30.01,29.96,29.91,10,10,7,22,14,29,0.05,8,Rain,63
2013-5-5,73,68,62,64,62,59,93,83,73,29.91,29.84,29.80,10,7,1,24,12,30,1.28,7,Fog-Rain,109
2013-5-6,75,66,56,62,53,43,100,67,33,29.94,29.88,29.84,10,9,0,14,7,20,0.00,2,Fog,246
2013-5-7,70,62,53,59,53,48,93,76,59,29.99,29.95,29.91,10,10,7,20,5,23,0.12,5,Rain,202
2013-5-8,81,66,51,60,54,48,87,63,39,30.06,30.02,29.98,10,10,10,18,8,22,0.00,1,,230
2013-5-9,87,75,63,61,59,56,90,62,34,30.11,30.07,30.03,10,10,10,17,8,21,0.00,1,,243
2013-5-10,87,76,64,62,60,57,84,61,37,30.11,30.07,30.02,10,10,10,20,8,25,0.00,3,,206
2013-5-11,85,77,69,68,64,59,90,67,43,30.04,29.96,29.89,10,10,10,17,9,28,0.00,7,,218
2013-5-12,84,74,64,67,58,49,84,58,31,30.02,29.92,29.87,10,10,10,18,9,24,T,4,,277
2013-5-13,75,64,53,47,40,36,66,46,25,30.16,30.08,30.01,10,10,10,20,9,26,0.00,2,,349
2013-5-14,75,62,49,52,46,42,83,59,35,30.27,30.20,30.14,10,10,10,18,7,22,0.00,1,,163
2013-5-15,87,73,58,60,55,51,84,60,35,30.19,30.11,30.03,10,10,10,20,11,25,0.00,0,,222
2013-5-16,86,76,66,65,60,55,78,61,44,30.08,30.04,30.01,10,10,10,15,8,20,0.00,5,,236
2013-5-17,88,77,65,66,63,60,93,67,40,30.13,30.09,30.05,10,10,10,15,7,18,0.00,3,,212
2013-5-18,84,76,67,68,65,62,90,71,51,30.17,30.12,30.09,10,10,10,16,7,21,0.00,6,,187
2013-5-19,86,78,70,69,67,63,87,73,58,30.15,30.10,30.07,10,10,10,20,8,23,0.00,6,,166
2013-5-20,83,78,72,72,69,67,93,84,74,30.13,30.08,30.05,10,10,10,20,7,23,0.08,6,Rain-Thunderstorm,194
2013-5-21,79,74,68,72,68,64,93,80,67,30.10,30.05,30.01,10,9,1,22,4,26,1.41,6,Rain-Thunderstorm,150
2013-5-22,85,75,65,70,67,64,93,74,55,30.04,30.00,29.95,10,8,0,17,5,22,0.00,4,Fog,158
2013-5-23,88,79,69,71,68,64,97,72,46,29.97,29.92,29.86,10,10,9,16,6,21,T,4,Fog-Rain,223
2013-5-24,86,74,61,66,54,36,79,51,23,30.18,29.99,29.88,10,10,10,22,10,28,0.00,1,,327
2013-5-25,80,67,54,53,43,35,72,47,21,30.31,30.23,30.17,10,10,10,15,7,21,0.00,1,,17
2013-5-26,85,71,57,58,55,53,86,60,34,30.27,30.21,30.16,10,10,10,16,4,20,0.00,2,,254
2013-5-27,84,73,61,64,60,58,93,70,47,30.26,30.22,30.18,10,10,10,14,5,18,0.00,2,,171
2013-5-28,84,74,64,67,63,59,93,69,44,30.26,30.22,30.20,10,10,10,17,7,23,0.00,3,,155
2013-5-29,85,75,64,67,63,61,93,70,47,30.27,30.22,30.18,10,10,10,16,7,22,0.00,3,,139
2013-5-30,87,76,65,70,66,62,93,71,48,30.27,30.22,30.19,10,10,9,16,7,21,0.00,2,Fog,133
2013-5-31,87,78,69,71,69,67,97,76,55,30.24,30.19,30.15,10,10,10,18,8,23,0.00,3,,144